Regional Weather Roundup
Issued by NWS

Home | Current Version | Previous Version | Graphics & Text | Print | Product List | Glossary On
Versions: 1 2 3 4 5 6 7 8 9 10 11 12 13 14 15 16 17 18 19 20 21 22 23 24 25 26 27 28 29 30 31 32 33 34 35 36 37 38 39 40 41 42 43 44 45 46 47 48 49 50
000
ASUS45 KABQ 061601
RWRNM
NEW MEXICO REGIONAL WEATHER ROUNDUP
NATIONAL WEATHER SERVICE ALBUQUERQUE NM
1000 AM MDT FRI MAY 06 2016

NOTE: "FAIR" MEANS FEW OR NO CLOUDS BELOW 12,000 FEET AGL WITH NO
       SIGNIFICANT WEATHER OR OBSTRUCTIONS TO VISION.

      THIS PRODUCT IS RELEASED AS TWO VERSIONS.  ONE VERSION NEAR
      THE TOP OF THE HOUR CONTAINING PRELIMINARY DATA FROM ALBUQUERQUE
      AND OTHER STATIONS.  A FINAL VERSION WITH ADDITIONAL DATA IS
      ISSUED ABOUT 10 MINUTES AFTER THE HOUR.

NMZ501-503-504-510>518-061700-
NORTHWEST PLATEAU/NORTHCENTRAL MOUNTAINS

CITY           SKY/WX    TMP DP  RH WIND       PRES   REMARKS
FARMINGTON     FAIR      68  29  23 W6        29.94F
SANTA FE       FAIR      70  27  20 S20G30    30.07F
TAOS           FAIR      68  30  24 SE16      30.10F

$$
NMZ402-403-502-505>509-061700-
WESTCENTRAL MOUNTAINS/SOUTHWEST MOUNTAINS

CITY           SKY/WX    TMP DP  RH WIND       PRES   REMARKS
GALLUP         FAIR      61  29  29 VRB7      30.00F
GRANTS         FAIR      68  18  15 S14G20    30.03S
SILVER CITY      N/A     68  25  19 S10       30.04F

$$
NMZ407-409-411-412-061700-
SOUTHERN DESERTS

CITY           SKY/WX    TMP DP  RH WIND       PRES   REMARKS
LORDSBURG      FAIR      73  30  20 SW8G16    29.95F
DEMING         FAIR      73  25  16 NW5       29.98S
ALAMOGORDO     FAIR      81  32  17 S22G28    29.97S
T OR C         FAIR      73  27  18 S13       29.98R

$$
NMZ519>523-061700-
CENTRAL VALLEYS/CENTRAL HIGHLANDS

CITY           SKY/WX    TMP DP  RH WIND       PRES   REMARKS
ALBUQUERQUE    FAIR      75  24  15 S21G28    30.00S
DOUBLE EAGLE   SUNNY     72  28  20 SE22G29   30.03F
CLINES CORNERS FAIR      67  28  23 SE16G24   30.11F
BELEN          FAIR      74  19  12 S24G30    29.99S
SOCORRO        NOT AVBL

$$
NMZ524>526-539-540-061700-
SOUTHCENTRAL MOUNTAINS

CITY           SKY/WX    TMP DP  RH WIND       PRES   REMARKS
RUIDOSO        NOT AVBL

$$
NMZ527>531-061700-
NORTHEAST HIGHLANDS/NORTHEAST PLAINS

CITY           SKY/WX    TMP DP  RH WIND       PRES   REMARKS
LAS VEGAS      FAIR      61  27  27 SE6       30.16F
RATON          FAIR      66  28  24 S14       30.14F
CLAYTON        FAIR      72  31  22 SW24      30.10S

$$
NMZ532>537-061700-
EASTCENTRAL PLAINS

CITY           SKY/WX    TMP DP  RH WIND       PRES   REMARKS
TUCUMCARI      FAIR      71  32  23 VRB6      30.06F
CANNON AFB     CLOUDY    73  31  20 S23G30    30.08S
CLOVIS AIRPORT FAIR      73  39  29 S21       30.10S

$$
NMZ028-029-538-061700-
SOUTHEAST PLAINS

CITY           SKY/WX    TMP DP  RH WIND       PRES   REMARKS
ROSWELL        FAIR      75  34  22 S18       30.01F
ARTESIA        FAIR      75  37  25 SE18G26   30.00S
CARLSBAD       FAIR      75  36  24 SE16      29.99S


$$



USA.gov is the U.S. government's official web portal to all federal, state and local government web resources and services.